TimePST,TemperatureF,Dew PointF,Humidity,Sea Level PressureIn,VisibilityMPH,Wind Direction,Wind SpeedMPH,Gust SpeedMPH,PrecipitationIn,Events,Conditions,WindDirDegrees,DateUTC
12:55 AM,39.9,37.9,93,29.50,10.0,East,4.6,-,0.00,,Overcast,80,2014-03-01 08:55:00
1:55 AM,39.9,37.0,89,29.52,10.0,Calm,Calm,-,N/A,,Mostly Cloudy,0,2014-03-01 09:55:00
2:55 AM,39.9,30.9,70,29.53,10.0,WNW,8.1,-,N/A,,Mostly Cloudy,290,2014-03-01 10:55:00
3:55 AM,37.0,34.0,89,29.57,10.0,Calm,Calm,-,N/A,,Mostly Cloudy,0,2014-03-01 11:55:00
4:55 AM,36.0,34.0,93,29.60,10.0,Calm,Calm,-,N/A,,Overcast,0,2014-03-01 12:55:00
5:55 AM,37.0,32.0,82,29.62,10.0,NE,4.6,-,N/A,,Mostly Cloudy,50,2014-03-01 13:55:00
6:55 AM,36.0,33.1,89,29.65,10.0,Calm,Calm,-,N/A,,Mostly Cloudy,0,2014-03-01 14:55:00
7:55 AM,37.0,32.0,82,29.69,10.0,ENE,4.6,-,N/A,,Mostly Cloudy,70,2014-03-01 15:55:00
8:55 AM,41.0,32.0,70,29.71,10.0,Calm,Calm,-,N/A,,Mostly Cloudy,0,2014-03-01 16:55:00
9:55 AM,46.9,30.9,54,29.70,10.0,Calm,Calm,-,N/A,,Mostly Cloudy,0,2014-03-01 17:55:00
10:55 AM,50.0,30.0,46,29.70,10.0,NNW,5.8,-,N/A,,Scattered Clouds,330,2014-03-01 18:55:00
11:55 AM,50.0,28.9,44,29.70,10.0,Calm,Calm,-,N/A,,Mostly Cloudy,0,2014-03-01 19:55:00
12:55 PM,53.1,28.9,40,29.68,10.0,WNW,5.8,-,N/A,,Mostly Cloudy,300,2014-03-01 20:55:00
1:55 PM,53.1,30.9,43,29.67,10.0,NW,9.2,-,N/A,,Mostly Cloudy,320,2014-03-01 21:55:00
2:55 PM,51.1,34.0,52,29.69,10.0,NNW,12.7,-,N/A,,Mostly Cloudy,330,2014-03-01 22:55:00
3:55 PM,51.1,33.1,50,29.70,10.0,ENE,5.8,-,N/A,,Mostly Cloudy,70,2014-03-01 23:55:00
4:55 PM,50.0,33.1,52,29.71,10.0,ENE,8.1,-,N/A,,Scattered Clouds,60,2014-03-02 00:55:00
5:55 PM,48.9,33.1,54,29.74,10.0,NE,5.8,-,N/A,,Mostly Cloudy,40,2014-03-02 01:55:00
6:55 PM,46.9,35.1,63,29.76,10.0,NE,4.6,-,N/A,,Mostly Cloudy,40,2014-03-02 02:55:00
7:55 PM,46.0,36.0,68,29.79,10.0,NE,4.6,-,N/A,,Mostly Cloudy,50,2014-03-02 03:55:00
8:55 PM,46.0,33.1,61,29.80,10.0,Calm,Calm,-,N/A,,Mostly Cloudy,0,2014-03-02 04:55:00
9:55 PM,46.0,32.0,58,29.82,10.0,NW,3.5,-,N/A,,Overcast,320,2014-03-02 05:55:00
10:55 PM,42.1,34.0,73,29.81,10.0,Calm,Calm,-,N/A,,Scattered Clouds,0,2014-03-02 06:55:00
11:55 PM,39.9,34.0,79,29.83,10.0,North,3.5,-,N/A,,Partly Cloudy,360,2014-03-02 07:55:00